Location: Titusville
(28.6119°N, 80.8078°W)
Time: 09:46:42
(UTC-04:00)

Envisat - Visible Passes

Search period start: 18 June 2018 00:00
Search period end: 28 June 2018 00:00
Orbit: 764 x 766 km, 98.2° (Epoch: 18 June)

Date Brightness Start Highest point End Pass type
(mag) Time Alt. Az. Time Alt. Az. Time Alt. Az.
18 Jun 3.1 20:51:35 10° S 20:56:39 82° WSW 21:01:45 10° NNW visible
19 Jun 5.5 21:55:57 10° SW 21:59:06 17° W 22:02:18 10° NW visible
20 Jun 4.2 21:17:28 10° S 21:22:14 42° W 21:27:01 10° NNW visible
22 Jun 5.2 21:44:02 10° SW 21:47:53 22° W 21:51:46 10° NW visible
23 Jun 3.7 21:06:06 10° S 21:11:04 55° W 21:16:02 10° NNW visible
24 Jun 5.8 22:12:23 10° WSW 22:13:38 11° W 22:14:53 10° W visible
25 Jun 4.8 21:32:21 10° SSW 21:36:41 28° W 21:41:02 10° NW visible
26 Jun 3.3 20:54:51 10° S 20:59:54 73° W 21:04:58 10° NNW visible
27 Jun 5.6 21:59:36 10° SW 22:02:24 15° W 22:05:12 10° WNW visible
